www.pogodaiklimat.ru

Погода и климат >> Архив погоды >> Ирак >> Zakho


ПОГОДА в Zakho

  • Прогноз погоды в Zakho
  • Монитор погоды в Zakho
  • Климат города

АРХИВ ПОГОДЫ в Zakho

Время (UTC), дата Ветер
(напр.,м/с)
 
Видим.   Явления Облачность Т
(С)
Тd
(С)
f
(%)
Тe
(С)
Тes
(С)
Комфортность P
(гПа)
Po
(гПа)
Тmin
(С)
Tmax
(С)
R
(мм)
R24
(мм)
S
(см)
12 18.02 ЮВ 3 10 км 9/4 750 м
[Cb calv As trans]
+14.4 +8.2 66 +14 +15 1005.0 1005.0
15 18.02 ЮВ 1 6000 м дождь 10/10 800 м
[Sc]
+9.0 +8.3 95 +8 +8 1009.0 1009.0
18 18.02 Ю 1 10 км 10/3 900 м
[Cu med, cong As trans]
+8.8 +7.1 89 +8 +8 1009.9 1010.0 +15.0 14
06 19.02 В 1 10 км 4/1 900 м
[Sc diur, vesp Ac und]
+10.1 +6.7 79 +10 +13 1013.7 1014.0 +8.1
09 19.02 З 1 10 км 4/3 900 м
[Cu med, cong Ac trans]
+14.1 +6.9 62 +15 +22 1013.9 1014.0
12 19.02 СЗ 1 10 км 4/3 750 м
[Cb calv Ac cuf]
+16.0 +8.0 59 +17 +20 1013.7 1014.0
15 19.02 штиль 0 10 км 4/3 900 м
[Sc diur, vesp Ac cuf]
+15.0 +7.3 60 +15 +15 1015.1 1015.0
18 19.02 штиль 0 9000 м дымка 6/6 900 м
[Sc]
+12.5 +9.5 82 +12 +12 1017.7 1018.0 +16.5
06 20.02 В 1 10 км 6/0
[Cs]
+10.1 +7.3 83 +10 +14 1020.2 1020.0 +7.3
09 20.02 Ю 1 10 км 4/3 900 м
[Cu med, cong Ac trans]
+15.8 +7.6 58 +17 +24 1018.7 1019.0
12 20.02 З 2 10 км 6/4 900 м
[Cu med, cong Ac und Cc]
+16.2 +8.8 62 +16 +19 1017.9 1018.0
15 20.02 З 1 10 км 6/4 840 м
[Cu Sc Ac trans Ci sp]
+14.4 +8.6 68 +15 +15 1017.3 1017.0
18 20.02 В 1 10 км 3/0
[Ci sp]
+12.4 +8.4 77 +12 +12 1018.0 1018.0 +17.2
06 21.02 В 1 10 км 6/5 900 м
[Sc As trans]
+11.2 +6.7 74 +11 +13 1018.1 1018.0 +9.5
09 21.02 Ю 1 10 км 6/3
[Cu med, cong Ci sp]
+16.0 +7.1 55 +17 +25 1016.3 1016.0
12 21.02 ЮЗ 2 9000 м мгла 8/8 660 м
[Cb cap]
+15.6 +9.4 67 +16 +17 1015.4 1015.0
15 21.02 штиль 0 10 км мгла {дождь} 8/3 900 м
[Sc As op]
+15.0 +9.1 68 +15 +15 1015.1 1015.0
18 21.02 С 2 9000 м в посл. час морось {дождь} 10/1 900 м
[Sc As op]
+13.1 +9.5 79 +12 +12 1015.6 1016.0 +16.2 0.1
06 22.02 Ю 1 9000 м слабый дождь 10/3 750 м
[Cu med, cong As op]
+10.6 +7.2 79 +10 +11 1015.5 1016.0 +9.9 0.9
09 22.02 В 1 8000 м слабая морось {дождь} 10/10 660 м
[Frnb]
+10.2 +9.0 92 +10 +10 1015.3 1015.0
12 22.02 ЮВ 2 10 км в посл. час морось {дождь} 9/9 750 м
[Cu Sc]
+12.7 +7.8 72 +12 +12 1013.9 1014.0
18 22.02 В 1 10 км {морось} 4/3 840 м
[Cu Sc Ac und]
+10.6 +8.7 88 +10 +10 1014.7 1015.0 +13.0 7
06 23.02 штиль 0 10 км 4/3 660 м
[Cb cap Ac cuf]
+9.9 +6.0 77 +9 +13 1014.2 1014.0 +7.6
09 23.02 Ю 2 10 км 4/3 660 м
[Cb cap Ac cuf]
+15.8 +6.6 54 +16 +23 1012.4 1012.0
12 23.02 Ю 1 8000 м гроза, ливневой дождь 10/10 660 м
[Cb cap]
+11.2 +9.4 89 +11 +11 1011.9 1012.0
09 24.02 Ю 1 10 км в посл. час морось 10/5 800 м
[Sc As op]
+10.3 +8.2 87 +10 +11 1013.0 1013.0

 

Местоположение метеостанции Zakho (Ирак): широта 37.13 долгота 42.72 высота над уровнем моря 433 м.

В архиве по умолчанию представлена погода в Zakho за последнюю неделю. Архивные данные за месяц целиком и за предыдущие месяцы, начиная с января 2011 года, Вы можете получить, выбрав интересующий диапазон дат из раскрывающегося списка и нажав кнопку "Ввод!".

Внимание! Время в таблицах - всемирное. Для получения местного времени необходимо прибавить поправку, которая в Zakho равна 3 ч.

Смотрите также архив погоды в соседних городах и на ближайших метеорологических станциях:

Погода в Dohuk (Ирак) (38 км)
Погода в S?rnak (Турция) (50 км)
Погода в Rabiah (Ирак) (66 км)
Погода в Mosul (Ирак) (98 км)
Погода в Hakkari (Турция) (105 км)
Погода в Aqraa (Ирак) (111 км)
Погода в Siirt (Турция) (112 км)
Погода в Kamishli (Сирия) (133 км)
Погода в Van (Турция) (156 км)
Погода в Salahadin (Ирак) (156 км)

Пояснения к столбцам:

Ветер - указаны скорость ветра в м/с - средняя за 10 мин, порывы в срок и между сроками (в фигурных скобках) и направление, откуда дует ветер: С - северный, СВ - северо-восточный, В - восточный, ЮВ - юго-восточный, Ю - южный, ЮЗ - юго-западный, З - западный, СЗ - северо-западный.
Видимость - горизонтальная дальность видимости в метрах или километрах. При видимости от 1 до 10 км при отсутствии осадков обычно наблюдается дымка, при ухудшении видимости до 1 км и менее - туман. В сухую погоду видимость может ухудшаться дымом, пылью или мглою.
Явления - указаны атмосферные явления, наблюдавшиеся в срок или в последний час перед сроком; фигурными скобками обозначены явления, наблюдавшиеся между сроками (за 1-3 часа до срока); квадратными скобками обозначены град или гололедные отложения с указанием их диаметра в мм.
Облачность - указаны через наклонную черту общая и нижняя облачность в баллах и высота нижней границы облаков в метрах; квадратными скобками обозначены формы облаков: Ci - перистые, Cs - перисто-слоистые, Cc - перисто-кучевые, Ac - высококучевые, As - высокослоистые, Sc - слоисто-кучевые, Ns - слоисто-дождевые, Cu - кучевые, Cb - кучево-дождевые. Подробнее классификацию облаков см. в Атласе облаков (PDF).
T - Температура воздуха - температура, измеренная на высоте 2 м над землей.
Td - Температура точки росы - температура, при понижении до которой содержащийся в воздухе водяной пар достигнет насыщения.
f - Относительная влажность воздуха - влажноcть воздуха, измеренная на высоте 2 м над землей.
Te - Эффективная температура - температура, которую ощущает одетый по сезону человек в тени. Характеристика душности погоды. При расчете учитывается влияние влажности воздуха и скорости ветра на теплоощущения человека.
Tes - Эффективная температура на солнце - температура, которую ощущает человек, с поправкой на солнечный нагрев. Характеристика знойности погоды. Зависит от высоты солнца над горизонтом, облачности и скорости ветра. Ночью, в пасмурную погоду, а также при ветре 12 м/с и более поправка равна нулю.
P - Атмосферное давление - приведенное к уровню моря атмосферное давление.
Po - Атмосферное давление - измеренное на уровне метеостанции атмосферное давление.
Tmin - Минимальная температура - минимум температуры воздуха на высоте 2 м над землей.
Tmax - Максимальная температура - максимум температуры воздуха на высоте 2 м над землей.
R - Количество осадков - Количество выпавших осадков за период времени, мм. При наведении курсора мыши на число - период времени, за который выпало указанное количество осадков.
R24 - Количество осадков - Количество выпавших осадков за 24 часа, мм.
S - Снежный покров - Высота снежного покрова, см. При наведении курсора мыши на число - состояние снежного покрова и степень покрытия местности в баллах.